Regional Weather Roundup
Issued by NWS

Home | Current Version | Previous Version | Text Only | Print | Product List | Glossary On
Versions: 1 2 3 4 5 6 7 8 9 10 11 12 13 14 15 16 17 18 19 20 21 22 23 24 25 26 27 28 29 30 31 32 33 34 35 36 37 38 39 40 41 42 43 44 45 46 47 48 49 50
000
ASUS44 KEWX 282002
RWRTX
SOUTH TEXAS REGIONAL WEATHER ROUNDUP
NATIONAL WEATHER SERVICE AUSTIN/SAN ANTONIO TX
300 PM CDT MON JUL 28 2014

NOTE: "FAIR" INDICATED FEW OR NO CLOUDS BELOW 12,000 FEET WITH NO
SIGNIFICANT WEATHER AND/OR OBSTRUCTIONS TO VISIBILITY.

* - THESE STATIONS ARE NOT NWS OR FAA STATIONS...AND ARE NOT SUBJECT
    TO NWS AND FAA QUALITY CONTROL.

TXZ171-172-183>190-282100-
TEXAS HILL COUNTRY AND EDWARDS PLATEAU

CITY           SKY/WX    TMP DP  RH WIND       PRES   REMARKS
JUNCTION       MOSUNNY   96  61  31 VRB6      30.12F HX  96
*LLANO         SUNNY     99  63  30 SE7       30.12F HX 100
BURNET         MOSUNNY   96  61  31 VRB7      30.13F HX  96
*HORSESHOE BAY SUNNY     97  55  24 S8G17     30.10F HX  95
*KERRVILLE     SUNNY     92  62  36 S3        30.14F HX  93
*FREDERICKSBRG SUNNY     94  57  29 SW7       30.13F HX  92
*ROCKSPRINGS   SUNNY     90  63  40 CALM      30.19F HX  90
*BOERNE STAGE  SUNNY     90  63  40 CALM      30.14F HX  90
*CASTROVILLE   MOSUNNY   96  62  32 SE6       30.10F HX  96
HONDO          MOSUNNY   92  70  48 CALM      30.11F HX  97
*UVALDE        MOSUNNY   93  71  47 E8        30.09F HX 100
DEL RIO        SUNNY     95  69  42 E8        30.07F HX 100
LAUGHLIN AFB   NOT AVBL
CARRIZO SPRGS  MOSUNNY   97  66  36 S7        30.03F HX 100
$$

TXZ173-191>194-202-209-217>225-228-282100-
CENTRAL AND SOUTH CENTRAL TEXAS

CITY           SKY/WX    TMP DP  RH WIND       PRES   REMARKS
GEORGETOWN     MOSUNNY   95  64  36 SE7       30.08F HX  97
AUSTIN/BERGSTM MOSUNNY   97  66  36 VRB3      30.07F HX 100
AUSTIN/MABRY   SUNNY     95  65  37 VRB3      30.09F HX  97
*AUSTIN/EXEC   SUNNY     95  66  38 NW3       30.09F HX  98
*LAGO VISTA    SUNNY     98  56  24 SE7       30.12F HX  96
SAN MARCOS     MOSUNNY   97  66  36 S7        30.08F HX 100
NEW BRAUNFELS  SUNNY     96  65  35 VRB6      30.07F HX  98
RANDOLPH AFB   NOT AVBL
PT SAN ANTONIO NOT AVBL
SAN ANTONIO    MOSUNNY   94  68  42 S10       30.10F HX  98
STINSON FIELD  MOSUNNY   95  68  41 VRB3      30.07F HX  99
*PLEASANTON    MOSUNNY  100  63  29 E6        30.06F HX 101
*LA GRANGE     SUNNY     96  71  43 CALM      30.05F HX 103
*GIDDINGS      SUNNY     96  62  32 CALM      30.11F HX  97
*GONZALES      MOSUNNY   98  68  37 W5        30.06F HX 103
$$

TXZ163>164-176>182-195>201-210>213-226-227-235-282100-
SOUTHEAST TEXAS

CITY           SKY/WX    TMP DP  RH WIND       PRES   REMARKS
COLLEGE STN    SUNNY     95  68  41 CALM      30.08F HX  99
*BRYAN         SUNNY    N/A N/A N/A CALM      30.08F
*CALDWELL      SUNNY     93  64  38 CALM      30.11F HX  95
*CROCKETT        N/A     93  79  62 W5        30.11F HX 110
*BRENHAM       SUNNY     94  66  39 CALM      30.09F HX  97
HUNTSVILLE     MOSUNNY   93  71  48 N5        30.09F HX 100
CONROE         SUNNY     95  70  44 NW7       30.09F HX 101
HOUSTON BUSH   MOSUNNY   94  69  44 N5        30.07F HX  99
HOUSTON HOBBY  MOSUNNY   95  71  45 S6        30.06F HX 102
*HOUSTON SW AP MOSUNNY   96  64  34 SW5       30.07F HX  99
PEARLAND       MOSUNNY   95  70  44 VRB6      30.08F HX 101
HOUSTON HOOKS  SUNNY     93  73  52 CALM      30.08F HX 102
ELLINGTON FLD  PTSUNNY   93  70  46 CALM      30.08F HX  99
SUGAR LAND     SUNNY     95  71  45 NW6       30.07F HX 102
*HOUSTON EXEC  MOSUNNY   95  73  49 NW3       30.08F HX 105
*CLEVELAND MUN SUNNY     94  75  54 CALM      30.09F HX 106
*WHARTON       MOSUNNY   97  66  36 W6        30.06F HX 100
$$

TXZ214>216-236>238-282100-
THE UPPER TEXAS COAST

CITY           SKY/WX    TMP DP  RH WIND       PRES   REMARKS
*ORANGE        MOSUNNY   92  68  44 W5        30.08F HX  96
PORT ARTHUR    MOSUNNY   93  74  53 VRB7      30.06F HX 103
GALVESTON      SUNNY     91  77  63 S15       30.09F HX 104
ANGLETON       MOSUNNY   94  73  50 SW6       30.07F HX 103
*BAY CITY      MOSUNNY   96  72  45 SW8       30.06F HX 104
PALACIOS       MOSUNNY   92  74  55 S12       30.08F HX 101
$$

TXZ229>234-239>247-282100-
TEXAS COASTAL BEND AND RIO GRANDE PLAINS

CITY           SKY/WX    TMP DP  RH WIND       PRES   REMARKS
VICTORIA       MOSUNNY   99  68  36 S12       30.06F HX 104
*BEEVILLE      MOSUNNY  100  65  31 S10G18    30.04F HX 104
ROCKPORT       MOSUNNY   90  77  65 SE14      30.06F HX 103
*PORT ARANSAS  MOSUNNY   88  79  74 SE9       30.07F HX 103
*PORT LAVACA   MOSUNNY   94  71  47 S13G20    30.06F HX 101
*INGLESIDE     SUNNY     94  74  51 SE16      30.06F HX 104
CORPUS CHRISTI MOSUNNY   97  73  45 SE21G28   30.04F HX 107
CORPUS NAS     MOSUNNY   91  78  65 SE20      30.05F HX 106
*ROBSTOWN      NOT AVBL
ALICE          MOSUNNY  101  68  34 SE8G18    30.02F HX 106
KINGSVILLE NAS MOSUNNY   97  77  52 SE15G24   30.03F HX 112
COTULLA        SUNNY     98  64  32 MISG      30.04F HX 100
*FAITH RANCH   MOSUNNY   99  64  32 SE5G17    30.06F HX 101
LAREDO         SUNNY    102  63  27 S12       30.04F HX 104
$$

TXZ248>255-282100-
DEEP SOUTH TEXAS

CITY           SKY/WX    TMP DP  RH WIND       PRES   REMARKS
BROWNSVILLE    SUNNY     95  71  45 SE16G24   30.05F HX 102
PORT ISABEL    SUNNY     94  73  50 SE22G28   30.05F HX 103
*SOUTH PADRE   SUNNY     90  79  70 SE10      30.07F HX 105
HARLINGEN      SUNNY     99  68  36 SE20G26   30.02F HX 104
*HEBBRONVILLE  SUNNY     99  60  28 E9G20     30.05F HX  99
MCALLEN        SUNNY    101  61  26 SE18G24   30.02F HX 102
*WESLACO       SUNNY     99  62  29 S15G23    30.02F HX 101
FALFURRIAS     MOSUNNY   94  58  29 S7G16     30.01F HX  93
EDINBURG       SUNNY    101  60  25 SE13      30.02F HX 101
*ZAPATA        NOT AVBL
$$

TXZ213>215-236>238-242>244-246-247-251-254-255-282100-
CMAN STATIONS

STATION/POSITION TIME  TEMP    WIND        PRES    WAVE
                       AIR SEA DIR/SP/G            HT/PER
                 (UTC) (F)     (DEG/KT/KT) (MB)    (FT/S)
SABINE PASS      1900   89 88  220/ 11/ 17 1018.5
SEA RIM ST PARK  1900   87     220/ 11/ 14 1019.4
NORTH JETTY/GLS  1900   85 89  220/ 11/ 14   N/A
EAGLE POINT      1900   89 89  130/  5/  6 1018.9
MORGANS POINT    1900   91 92  340/  4/  6 1018.5
MISSION/ARANSAS  1900   84     150/ 12     1020.0
PORT O`CONNOR    1900          150/ 11/ 14   N/A
PORT ARANSAS     1900   83 84  140/  7/  8 1019.7
MALAQUITE BEACH  1900   82 76  120/ 11/ 12 1017.8
BAFFIN BAY       1900   85 89  130/ 16/ 19 1018.2
PORT ISABEL      1900   86 83  140/ 14/ 20 1018.5
$$

GMZ080-GMZ150>470-282100-
OFFSHORE BUOY REPORTS

STATION/POSITION TIME  TEMP    WIND        PRES    WAVE
                       AIR SEA DIR/SP/G            HT/PER
                 (UTC) (F)     (DEG/KT/KT) (MB)    (FT/S)
90 E PT ARANSAS  2000   84 85  200/  4/  6 1019.4    2/ 5
35 NE PT MANSFLD 1900   85 85  150/ 10/ 12 1019.1    2/ 5
200 E PT ISABEL  1900   84 89  160/  2/  6 1019.9    1/ 5
$$



USA.gov is the U.S. government's official web portal to all federal, state and local government web resources and services.